DLH6CH EDDF-EGLL

Flight info

Callsign DLH6CH
Flight time 1h 14m
Altitude 36000
Route OBOKA Z29 TORNU DCT ABNED L980 LOGAN
Aircraft A321/M-SDE2E3FGIJ1LORWXYZ/HB1

Departure

Time 2026-05-04 22:32
Airport Frankfurt Main Airport (EDDF)

Arrival

Time 2026-05-04 23:46
Airport London Heathrow Airport (EGLL)
Time Latitude Longitude Altitude Speed Heading
2026-05-04 21:54 50.04606 8.57197 363 ft 0 kts
2026-05-04 21:54 50.04614 8.57197 363 ft 0 kts
2026-05-04 22:18 50.04597 8.57196 363 ft 4 kts
2026-05-04 22:18 50.04575 8.57194 361 ft 4 kts
2026-05-04 22:18 50.04549 8.57185 364 ft 4 kts 31°
2026-05-04 22:18 50.04530 8.57158 365 ft 4 kts 63°
2026-05-04 22:19 50.04521 8.57119 359 ft 4 kts 72°
2026-05-04 22:19 50.04519 8.57111 361 ft 1 kts 70°
2026-05-04 22:23 50.04521 8.57121 359 ft 2 kts 70°
2026-05-04 22:23 50.04528 8.57150 365 ft 4 kts 69°
2026-05-04 22:23 50.04547 8.57224 360 ft 12 kts 69°
2026-05-04 22:24 50.04584 8.57377 360 ft 17 kts 69°
2026-05-04 22:24 50.04553 8.57522 360 ft 15 kts 146°
2026-05-04 22:24 50.04475 8.57611 366 ft 14 kts 118°
2026-05-04 22:24 50.04481 8.57752 365 ft 14 kts 73°
2026-05-04 22:25 50.04515 8.57900 368 ft 15 kts 69°
2026-05-04 22:25 50.04556 8.58067 367 ft 18 kts 69°
2026-05-04 22:25 50.04597 8.58240 371 ft 14 kts 71°
2026-05-04 22:25 50.04629 8.58378 369 ft 14 kts 69°
2026-05-04 22:26 50.04665 8.58527 371 ft 16 kts 69°
2026-05-04 22:26 50.04699 8.58680 371 ft 14 kts 85°
2026-05-04 22:26 50.04643 8.58755 370 ft 3 kts 180°
2026-05-04 22:28 50.04642 8.58755 370 ft 1 kts 181°
2026-05-04 22:28 50.04622 8.58751 371 ft 7 kts 192°
2026-05-04 22:28 50.04558 8.58690 371 ft 15 kts 212°
2026-05-04 22:28 50.04493 8.58613 371 ft 8 kts 246°
2026-05-04 22:29 50.04491 8.58603 371 ft 0 kts 251°
2026-05-04 22:31 50.04473 8.58525 370 ft 33 kts 250°
2026-05-04 22:31 50.04290 8.57775 364 ft 112 kts 250°
2026-05-04 22:31 50.03944 8.56310 382 ft 170 kts 248°
2026-05-04 22:32 50.03540 8.54595 1138 ft 167 kts 249°
2026-05-04 22:32 50.03144 8.52905 1885 ft 168 kts 249°
2026-05-04 22:32 50.02711 8.51117 2226 ft 187 kts 247°
2026-05-04 22:32 50.01958 8.49400 2687 ft 198 kts 224°
2026-05-04 22:33 50.00780 8.48264 3389 ft 203 kts 200°
2026-05-04 22:33 49.99386 8.47834 4158 ft 206 kts 190°
2026-05-04 22:33 49.97959 8.47519 4930 ft 208 kts 191°
2026-05-04 22:33 49.96523 8.47197 5696 ft 209 kts 192°
2026-05-04 22:34 49.95088 8.46617 6268 ft 222 kts 200°
2026-05-04 22:34 49.93543 8.45890 6716 ft 239 kts 200°
2026-05-04 22:34 49.92023 8.44843 7420 ft 240 kts 216°
2026-05-04 22:34 49.90786 8.43109 8178 ft 241 kts 233°
2026-05-04 22:35 49.90351 8.42135 8539 ft 241 kts 239°
2026-05-04 22:35 49.90006 8.41233 8858 ft 242 kts 240°
2026-05-04 22:35 49.89168 8.38972 9646 ft 244 kts 245°
2026-05-04 22:35 49.88875 8.37821 9994 ft 245 kts 252°
2026-05-04 22:36 49.88596 8.35216 10464 ft 260 kts 268°
2026-05-04 22:36 49.88729 8.32300 10693 ft 283 kts 273°
2026-05-04 22:36 49.88917 8.29143 10867 ft 306 kts 276°
2026-05-04 22:36 49.89554 8.25896 11251 ft 322 kts 293°
2026-05-04 22:37 49.90790 8.22953 11845 ft 331 kts 303°
2026-05-04 22:37 49.92176 8.20055 12495 ft 335 kts 303°
2026-05-04 22:37 49.93575 8.17133 13168 ft 339 kts 304°
2026-05-04 22:37 49.95235 8.14474 13797 ft 348 kts 316°
2026-05-04 22:38 49.97074 8.12010 14368 ft 351 kts 316°
2026-05-04 22:38 49.98937 8.09523 14940 ft 355 kts 315°
2026-05-04 22:38 50.00820 8.07012 15520 ft 358 kts 315°
2026-05-04 22:38 50.02695 8.04511 16093 ft 362 kts 315°
2026-05-04 22:39 50.04611 8.01951 16677 ft 365 kts 315°
2026-05-04 22:39 50.06543 7.99361 17246 ft 368 kts 315°
2026-05-04 22:39 50.08492 7.96747 17793 ft 372 kts 315°
2026-05-04 22:39 50.10462 7.94103 18351 ft 375 kts 315°
2026-05-04 22:40 50.12448 7.91434 18821 ft 378 kts 315°
2026-05-04 22:40 50.14447 7.88743 19312 ft 381 kts 315°
2026-05-04 22:40 50.16461 7.86028 19824 ft 383 kts 315°
2026-05-04 22:40 50.18479 7.83307 20361 ft 385 kts 315°
2026-05-04 22:41 50.20509 7.80565 20865 ft 387 kts 314°
2026-05-04 22:41 50.22575 7.77758 21312 ft 391 kts 314°
2026-05-04 22:41 50.24636 7.75048 21748 ft 396 kts 319°
2026-05-04 22:41 50.27008 7.72765 22183 ft 405 kts 329°
2026-05-04 22:42 50.29605 7.70964 22627 ft 410 kts 332°
2026-05-04 22:42 50.32225 7.69184 23071 ft 413 kts 332°
2026-05-04 22:42 50.34868 7.67383 23492 ft 416 kts 332°
2026-05-04 22:42 50.37529 7.65563 23885 ft 418 kts 332°
2026-05-04 22:43 50.40203 7.63731 24269 ft 420 kts 332°
2026-05-04 22:43 50.42884 7.61888 24663 ft 422 kts 332°
2026-05-04 22:43 50.45580 7.60029 25050 ft 424 kts 332°
2026-05-04 22:43 50.48292 7.58155 25438 ft 426 kts 332°
2026-05-04 22:44 50.51012 7.56275 25818 ft 428 kts 332°
2026-05-04 22:44 50.53742 7.54389 26191 ft 430 kts 332°
2026-05-04 22:44 50.56422 7.52314 26561 ft 428 kts 324°
2026-05-04 22:44 50.58926 7.49786 26937 ft 428 kts 322°
2026-05-04 22:45 50.61426 7.47219 27297 ft 430 kts 322°
2026-05-04 22:45 50.66466 7.42052 28101 ft 433 kts 321°
2026-05-04 22:45 50.68995 7.39458 28503 ft 434 kts 321°
2026-05-04 22:46 50.71496 7.36780 28873 ft 432 kts 316°
2026-05-04 22:46 50.73714 7.33625 29230 ft 427 kts 307°
2026-05-04 22:46 50.75571 7.30004 29576 ft 422 kts 298°
2026-05-04 22:46 50.77036 7.26027 29933 ft 418 kts 291°
2026-05-04 22:47 50.78362 7.21924 30236 ft 420 kts 291°
2026-05-04 22:47 50.79699 7.17806 30508 ft 423 kts 292°
2026-05-04 22:47 50.81048 7.13663 30773 ft 425 kts 292°
2026-05-04 22:47 50.82401 7.09503 31013 ft 426 kts 292°
2026-05-04 22:48 50.83757 7.05314 31265 ft 428 kts 292°
2026-05-04 22:48 50.85098 7.01164 31518 ft 430 kts 292°
2026-05-04 22:48 50.86477 6.96897 31797 ft 430 kts 292°
2026-05-04 22:48 50.87840 6.92679 32110 ft 430 kts 292°
2026-05-04 22:49 50.89199 6.88463 32445 ft 429 kts 292°
2026-05-04 22:49 50.90534 6.84304 32746 ft 429 kts 291°
2026-05-04 22:49 50.91901 6.80033 33056 ft 429 kts 291°
2026-05-04 22:49 50.93232 6.75869 33355 ft 429 kts 291°
2026-05-04 22:50 50.94598 6.71598 33660 ft 428 kts 291°
2026-05-04 22:50 50.95944 6.67377 33960 ft 428 kts 291°
2026-05-04 22:50 50.97285 6.63166 34225 ft 428 kts 291°
2026-05-04 22:50 50.98625 6.58950 34517 ft 428 kts 291°
2026-05-04 22:51 50.99947 6.54791 34763 ft 428 kts 291°
2026-05-04 22:51 51.01286 6.50575 35010 ft 427 kts 291°
2026-05-04 22:51 51.02619 6.46366 35260 ft 427 kts 291°
2026-05-04 22:51 51.03955 6.42140 35497 ft 427 kts 291°
2026-05-04 22:52 51.05284 6.37934 35726 ft 427 kts 291°
2026-05-04 22:52 51.06618 6.33698 35917 ft 428 kts 291°
2026-05-04 22:52 51.09255 6.25284 35971 ft 422 kts 291°
2026-05-04 22:53 51.11864 6.16929 35997 ft 421 kts 291°
2026-05-04 22:53 51.14248 6.08458 35974 ft 416 kts 281°
2026-05-04 22:54 51.15709 5.99597 35968 ft 414 kts 279°
2026-05-04 22:54 51.17144 5.90710 35970 ft 414 kts 279°
2026-05-04 22:55 51.18718 5.81866 35983 ft 419 kts 287°
2026-05-04 22:55 51.21000 5.73283 35996 ft 420 kts 288°
2026-05-04 22:56 51.23269 5.64719 36002 ft 419 kts 287°
2026-05-04 22:56 51.25512 5.56163 35993 ft 418 kts 287°
2026-05-04 22:57 51.27364 5.49050 35993 ft 417 kts 287°
2026-05-04 22:57 51.29587 5.40506 35988 ft 417 kts 287°
2026-05-04 22:58 51.31814 5.31949 35989 ft 417 kts 287°
2026-05-04 22:58 51.34034 5.23396 35986 ft 417 kts 287°
2026-05-04 22:59 51.36246 5.14823 35980 ft 417 kts 287°
2026-05-04 22:59 51.38443 5.06251 35977 ft 417 kts 287°
2026-05-04 23:00 51.40646 4.97667 35971 ft 417 kts 287°
2026-05-04 23:00 51.42844 4.89067 35968 ft 417 kts 287°
2026-05-04 23:01 51.45030 4.80458 35968 ft 417 kts 287°
2026-05-04 23:01 51.47209 4.71834 35980 ft 418 kts 287°
2026-05-04 23:02 51.49382 4.63190 35992 ft 418 kts 287°
2026-05-04 23:02 51.51547 4.54534 35979 ft 418 kts 287°
2026-05-04 23:03 51.53716 4.45882 35980 ft 418 kts 287°
2026-05-04 23:03 51.55884 4.37218 35968 ft 418 kts 287°
2026-05-04 23:04 51.58040 4.28550 35971 ft 418 kts 286°
2026-05-04 23:04 51.60180 4.19862 35975 ft 417 kts 286°
2026-05-04 23:05 51.62286 4.11256 35971 ft 417 kts 286°
2026-05-04 23:05 51.64431 4.02512 35964 ft 417 kts 286°
2026-05-04 23:06 51.66543 3.93885 35954 ft 417 kts 286°
2026-05-04 23:06 51.68666 3.85189 35971 ft 417 kts 286°
2026-05-04 23:07 51.70785 3.76475 35964 ft 418 kts 286°
2026-05-04 23:07 51.72889 3.67739 35961 ft 418 kts 286°
2026-05-04 23:08 51.74987 3.58989 35956 ft 418 kts 286°
2026-05-04 23:08 51.77088 3.50223 35964 ft 418 kts 286°
2026-05-04 23:09 51.79177 3.41454 35964 ft 419 kts 286°
2026-05-04 23:09 51.81258 3.32670 35971 ft 419 kts 286°
2026-05-04 23:10 51.83344 3.23864 35965 ft 420 kts 286°
2026-05-04 23:10 51.84570 3.14803 35960 ft 409 kts 268°
2026-05-04 23:11 51.84178 3.05693 35967 ft 406 kts 261°
2026-05-04 23:11 51.83583 2.96611 35968 ft 406 kts 261°
2026-05-04 23:12 51.82990 2.87529 35982 ft 407 kts 261°
2026-05-04 23:12 51.82381 2.78419 35967 ft 408 kts 261°
2026-05-04 23:13 51.81760 2.69282 35546 ft 411 kts 261°
2026-05-04 23:13 51.81444 2.64709 35028 ft 408 kts 261°
2026-05-04 23:13 51.81134 2.60178 34567 ft 403 kts 261°
2026-05-04 23:14 51.80829 2.55703 34125 ft 399 kts 261°
2026-05-04 23:14 51.80524 2.51271 33644 ft 394 kts 260°
2026-05-04 23:14 51.80220 2.46902 33204 ft 388 kts 260°
2026-05-04 23:14 51.79917 2.42600 32802 ft 383 kts 259°
2026-05-04 23:15 51.79617 2.38362 32342 ft 377 kts 259°
2026-05-04 23:15 51.79319 2.34171 31916 ft 371 kts 258°
2026-05-04 23:15 51.79025 2.30071 31517 ft 365 kts 258°
2026-05-04 23:15 51.78732 2.26028 31094 ft 359 kts 257°
2026-05-04 23:16 51.78445 2.22049 30708 ft 353 kts 256°
2026-05-04 23:16 51.78187 2.18135 30325 ft 348 kts 257°
2026-05-04 23:16 51.77960 2.14268 29928 ft 343 kts 257°
2026-05-04 23:16 51.77748 2.10465 29538 ft 337 kts 257°
2026-05-04 23:17 51.77541 2.06731 29186 ft 330 kts 257°
2026-05-04 23:17 51.77335 2.03078 28835 ft 324 kts 257°
2026-05-04 23:17 51.77127 1.99496 28502 ft 317 kts 257°
2026-05-04 23:17 51.76918 1.95985 28179 ft 312 kts 257°
2026-05-04 23:18 51.76706 1.92501 27877 ft 312 kts 257°
2026-05-04 23:18 51.76490 1.89020 27538 ft 312 kts 257°
2026-05-04 23:18 51.76276 1.85545 27224 ft 311 kts 258°
2026-05-04 23:18 51.76061 1.82066 26906 ft 311 kts 258°
2026-05-04 23:19 51.75847 1.78594 26595 ft 310 kts 258°
2026-05-04 23:19 51.75634 1.75134 26277 ft 310 kts 258°
2026-05-04 23:19 51.75420 1.71678 25970 ft 309 kts 259°
2026-05-04 23:19 51.75201 1.68207 25351 ft 315 kts 259°
2026-05-04 23:20 51.74974 1.64663 24698 ft 321 kts 260°
2026-05-04 23:20 51.74741 1.61019 24315 ft 330 kts 261°
2026-05-04 23:20 51.74508 1.57324 23935 ft 332 kts 261°
2026-05-04 23:20 51.74278 1.53626 23559 ft 332 kts 261°
2026-05-04 23:21 51.74049 1.49975 23118 ft 331 kts 261°
2026-05-04 23:21 51.73814 1.46289 22679 ft 330 kts 261°
2026-05-04 23:21 51.73572 1.42566 22244 ft 330 kts 261°
2026-05-04 23:21 51.73333 1.38931 21820 ft 330 kts 261°
2026-05-04 23:22 51.73091 1.35258 21406 ft 329 kts 261°
2026-05-04 23:22 51.72848 1.31589 20985 ft 328 kts 262°
2026-05-04 23:22 51.72606 1.27938 20572 ft 327 kts 262°
2026-05-04 23:22 51.72365 1.24301 20168 ft 325 kts 262°
2026-05-04 23:23 51.72124 1.20674 19764 ft 324 kts 262°
2026-05-04 23:23 51.71885 1.17072 19364 ft 323 kts 262°
2026-05-04 23:23 51.71644 1.13475 18980 ft 322 kts 262°
2026-05-04 23:23 51.71403 1.09891 18596 ft 321 kts 262°
2026-05-04 23:24 51.71159 1.06288 17763 ft 330 kts 262°
2026-05-04 23:24 51.70901 1.02564 16996 ft 335 kts 262°
2026-05-04 23:24 51.70643 0.98819 16477 ft 331 kts 262°
2026-05-04 23:24 51.70392 0.95182 16000 ft 328 kts 262°
2026-05-04 23:25 51.70144 0.91556 15590 ft 322 kts 262°
2026-05-04 23:25 51.69900 0.87995 15215 ft 316 kts 262°
2026-05-04 23:25 51.69661 0.84510 14841 ft 311 kts 262°
2026-05-04 23:25 51.69423 0.81072 14471 ft 306 kts 262°
2026-05-04 23:26 51.69182 0.77686 14112 ft 303 kts 262°
2026-05-04 23:26 51.68942 0.74319 13742 ft 301 kts 262°
2026-05-04 23:26 51.68703 0.70973 13356 ft 300 kts 262°
2026-05-04 23:26 51.68465 0.67642 12995 ft 299 kts 262°
2026-05-04 23:27 51.68226 0.64330 12642 ft 297 kts 262°
2026-05-04 23:27 51.67987 0.61022 12285 ft 296 kts 262°
2026-05-04 23:27 51.67747 0.57733 11931 ft 295 kts 262°
2026-05-04 23:27 51.67510 0.54473 11587 ft 291 kts 262°
2026-05-04 23:28 51.67278 0.51264 11242 ft 287 kts 262°
2026-05-04 23:28 51.67049 0.48087 10898 ft 285 kts 262°
2026-05-04 23:28 51.66820 0.44920 10553 ft 283 kts 262°
2026-05-04 23:28 51.66595 0.41820 10218 ft 282 kts 262°
2026-05-04 23:29 51.66366 0.38684 9878 ft 281 kts 262°
2026-05-04 23:29 51.66135 0.35565 9520 ft 280 kts 262°
2026-05-04 23:29 51.65905 0.32469 9182 ft 278 kts 262°
2026-05-04 23:29 51.65674 0.29386 8850 ft 276 kts 262°
2026-05-04 23:30 51.65443 0.26326 8523 ft 275 kts 262°
2026-05-04 23:30 51.65212 0.23283 8205 ft 272 kts 262°
2026-05-04 23:30 51.64990 0.20322 8072 ft 260 kts 262°
2026-05-04 23:30 51.64778 0.17482 7971 ft 248 kts 262°
2026-05-04 23:31 51.64576 0.14788 7881 ft 240 kts 263°
2026-05-04 23:31 51.64447 0.12123 7567 ft 238 kts 266°
2026-05-04 23:31 51.64360 0.09467 7242 ft 237 kts 266°
2026-05-04 23:31 51.64279 0.06836 7006 ft 233 kts 266°
2026-05-04 23:32 51.64198 0.04222 6980 ft 236 kts 266°
2026-05-04 23:32 51.64117 0.01576 6975 ft 236 kts 266°
2026-05-04 23:32 51.64034 -0.01061 7004 ft 237 kts 266°
2026-05-04 23:32 51.63949 -0.03717 6995 ft 238 kts 266°
2026-05-04 23:33 51.63860 -0.06373 6997 ft 238 kts 266°
2026-05-04 23:33 51.63772 -0.09032 6998 ft 238 kts 266°
2026-05-04 23:33 51.63683 -0.11693 6999 ft 238 kts 266°
2026-05-04 23:33 51.63593 -0.14358 7000 ft 238 kts 266°
2026-05-04 23:34 51.63503 -0.17020 7001 ft 238 kts 266°
2026-05-04 23:34 51.63412 -0.19681 7002 ft 238 kts 266°
2026-05-04 23:34 51.63321 -0.22346 7002 ft 238 kts 266°
2026-05-04 23:34 51.63230 -0.25009 7002 ft 238 kts 266°
2026-05-04 23:35 51.63138 -0.27670 7002 ft 238 kts 266°
2026-05-04 23:35 51.63047 -0.30331 7002 ft 238 kts 266°
2026-05-04 23:35 51.62956 -0.32996 7002 ft 238 kts 266°
2026-05-04 23:35 51.62865 -0.35654 6974 ft 238 kts 266°
2026-05-04 23:36 51.62773 -0.38315 6981 ft 238 kts 266°
2026-05-04 23:36 51.62681 -0.40979 6973 ft 238 kts 266°
2026-05-04 23:36 51.62588 -0.43646 6973 ft 238 kts 266°
2026-05-04 23:36 51.62495 -0.46307 6976 ft 238 kts 266°
2026-05-04 23:37 51.62402 -0.48966 6975 ft 238 kts 266°
2026-05-04 23:37 51.62308 -0.51626 6975 ft 238 kts 266°
2026-05-04 23:37 51.62215 -0.54284 6975 ft 238 kts 266°
2026-05-04 23:37 51.62123 -0.56948 6982 ft 238 kts 266°
2026-05-04 23:38 51.62030 -0.59611 6975 ft 238 kts 266°
2026-05-04 23:38 51.61935 -0.62270 6982 ft 238 kts 266°
2026-05-04 23:38 51.61839 -0.64928 6975 ft 238 kts 266°
2026-05-04 23:38 51.61744 -0.67576 6723 ft 236 kts 266°
2026-05-04 23:39 51.61648 -0.70208 6388 ft 235 kts 266°
2026-05-04 23:39 51.61475 -0.72812 6045 ft 233 kts 252°
2026-05-04 23:39 51.60628 -0.74946 5816 ft 226 kts 219°
2026-05-04 23:39 51.59226 -0.75961 5515 ft 224 kts 189°
2026-05-04 23:40 51.57674 -0.76121 5162 ft 224 kts 182°
2026-05-04 23:40 51.56169 -0.76128 4958 ft 215 kts 181°
2026-05-04 23:40 51.54644 -0.76131 4499 ft 216 kts 181°
2026-05-04 23:40 51.53154 -0.76139 3963 ft 213 kts 181°
2026-05-04 23:41 51.51698 -0.76156 3457 ft 209 kts 181°
2026-05-04 23:41 51.50255 -0.76182 3146 ft 207 kts 181°
2026-05-04 23:41 51.48869 -0.75739 2964 ft 206 kts 150°
2026-05-04 23:41 51.47878 -0.74131 2960 ft 205 kts 115°
2026-05-04 23:42 51.47607 -0.71911 2908 ft 205 kts 89°
2026-05-04 23:42 51.47629 -0.69632 2689 ft 204 kts 88°
2026-05-04 23:42 51.47653 -0.67378 2441 ft 199 kts 88°
2026-05-04 23:42 51.47667 -0.65244 2176 ft 183 kts 88°
2026-05-04 23:43 51.47678 -0.63277 1932 ft 170 kts 88°
2026-05-04 23:43 51.47688 -0.61441 1706 ft 160 kts 88°
2026-05-04 23:43 51.47697 -0.59702 1498 ft 150 kts 88°
2026-05-04 23:43 51.47702 -0.58589 1362 ft 145 kts 88°
2026-05-04 23:44 51.47710 -0.56990 1160 ft 142 kts 88°
2026-05-04 23:44 51.47717 -0.55413 964 ft 141 kts 88°
2026-05-04 23:44 51.47725 -0.53853 778 ft 140 kts 89°
2026-05-04 23:44 51.47734 -0.52320 601 ft 139 kts 88°
2026-05-04 23:45 51.47744 -0.50776 404 ft 138 kts 88°
2026-05-04 23:45 51.47753 -0.49240 219 ft 137 kts 89°
2026-05-04 23:45 51.47753 -0.47729 93 ft 129 kts 88°
2026-05-04 23:45 51.47760 -0.46462 89 ft 92 kts 89°
2026-05-04 23:46 51.47761 -0.45708 84 ft 43 kts 89°
2026-05-04 23:46 51.47763 -0.45368 86 ft 26 kts 89°
2026-05-04 23:46 51.47757 -0.45251 89 ft 8 kts 110°
2026-05-04 23:46 51.47720 -0.45187 88 ft 9 kts 151°
2026-05-04 23:47 51.47650 -0.45176 87 ft 12 kts 179°
2026-05-04 23:47 51.47635 -0.45177 89 ft 0 kts 181°
2026-05-04 23:47 51.47634 -0.45177 88 ft 0 kts 180°
2026-05-04 23:48 51.47601 -0.45176 86 ft 10 kts 179°
2026-05-04 23:48 51.47514 -0.45124 88 ft 16 kts 116°
2026-05-04 23:48 51.47511 -0.44940 90 ft 18 kts 88°
2026-05-04 23:49 51.47510 -0.44734 90 ft 19 kts 90°
2026-05-04 23:49 51.47478 -0.44574 90 ft 16 kts 148°
2026-05-04 23:49 51.47362 -0.44560 86 ft 18 kts 180°
2026-05-04 23:49 51.47232 -0.44559 86 ft 20 kts 179°
2026-05-04 23:50 51.47088 -0.44556 86 ft 21 kts 180°
2026-05-04 23:50 51.46946 -0.44554 86 ft 18 kts 180°
2026-05-04 23:50 51.46868 -0.44568 90 ft 8 kts 223°
2026-05-04 23:50 51.46858 -0.44653 87 ft 0 kts 266°
2026-05-04 23:51 51.46858 -0.44667 89 ft 2 kts 267°
2026-05-04 23:51 51.46858 -0.44678 89 ft 1 kts 267°
2026-05-04 23:51 51.46857 -0.44679 89 ft 0 kts 267°